Year,Month,Day,Hour,Minute,Value (Times are PST for temperature in C)
2009,07,27,00,00,22.30
2009,07,27,00,01,22.30
2009,07,27,00,02,22.30
2009,07,27,00,03,22.30
2009,07,27,00,04,22.30
2009,07,27,00,05,22.30
2009,07,27,00,06,22.30
2009,07,27,00,07,22.30
2009,07,27,00,08,22.40
2009,07,27,00,09,22.40
2009,07,27,00,10,22.50
2009,07,27,00,11,22.60
2009,07,27,00,12,22.60
2009,07,27,00,13,22.70
2009,07,27,00,14,22.70
2009,07,27,00,15,22.80
2009,07,27,00,16,22.80
2009,07,27,00,17,22.80
2009,07,27,00,18,22.80
2009,07,27,00,19,22.80
2009,07,27,00,20,22.90
2009,07,27,00,21,22.90
2009,07,27,00,22,22.90
2009,07,27,00,23,22.90
2009,07,27,00,24,22.80
2009,07,27,00,25,22.80
2009,07,27,00,26,22.80
2009,07,27,00,27,22.80
2009,07,27,00,28,22.80
2009,07,27,00,29,22.80
2009,07,27,00,30,22.80
2009,07,27,00,31,22.80
2009,07,27,00,32,22.80
2009,07,27,00,33,22.80
2009,07,27,00,34,22.80
2009,07,27,00,35,22.80
2009,07,27,00,36,22.90
2009,07,27,00,37,22.90
2009,07,27,00,38,22.90
2009,07,27,00,39,23.00
2009,07,27,00,40,23.10
2009,07,27,00,41,23.20
2009,07,27,00,42,23.30
2009,07,27,00,43,23.30
2009,07,27,00,44,23.30
2009,07,27,00,45,23.30
2009,07,27,00,46,23.30
2009,07,27,00,47,23.40
2009,07,27,00,48,23.40
2009,07,27,00,49,23.40
2009,07,27,00,50,23.40
2009,07,27,00,51,23.40
2009,07,27,00,52,23.40
2009,07,27,00,53,23.40
2009,07,27,00,54,23.40
2009,07,27,00,55,23.40
2009,07,27,00,56,23.30
2009,07,27,00,57,23.30
2009,07,27,00,58,23.30
2009,07,27,00,59,23.30
2009,07,27,01,00,23.30
2009,07,27,01,01,23.30
2009,07,27,01,02,23.30
2009,07,27,01,03,23.30
2009,07,27,01,04,23.30
2009,07,27,01,05,23.30
2009,07,27,01,06,23.30
2009,07,27,01,07,23.30
2009,07,27,01,08,23.30
2009,07,27,01,09,23.30
2009,07,27,01,10,23.30
2009,07,27,01,11,23.30
2009,07,27,01,12,23.30
2009,07,27,01,13,23.30
2009,07,27,01,14,23.30
2009,07,27,01,15,23.30
2009,07,27,01,16,23.30
2009,07,27,01,17,23.30
2009,07,27,01,18,23.30
2009,07,27,01,19,23.30
2009,07,27,01,20,23.30
2009,07,27,01,21,23.30
2009,07,27,01,22,23.30
2009,07,27,01,23,23.30
2009,07,27,01,24,23.30
2009,07,27,01,25,23.30
2009,07,27,01,26,23.30
2009,07,27,01,27,23.30
2009,07,27,01,28,23.30
2009,07,27,01,29,23.30
2009,07,27,01,30,23.30
2009,07,27,01,31,23.30
2009,07,27,01,32,23.30
2009,07,27,01,33,23.20
2009,07,27,01,34,23.10
2009,07,27,01,35,23.10
2009,07,27,01,36,23.10
2009,07,27,01,37,23.10
2009,07,27,01,38,23.10
2009,07,27,01,39,23.00
2009,07,27,01,40,22.90
2009,07,27,01,41,22.90
2009,07,27,01,42,22.90
2009,07,27,01,43,22.90
2009,07,27,01,44,22.90
2009,07,27,01,45,22.90
2009,07,27,01,46,22.90
2009,07,27,01,47,22.90
2009,07,27,01,48,22.90
2009,07,27,01,49,22.90
2009,07,27,01,50,22.90
2009,07,27,01,51,22.80
2009,07,27,01,52,22.80
2009,07,27,01,53,22.80
2009,07,27,01,54,22.70
2009,07,27,01,55,22.70
2009,07,27,01,56,22.70
2009,07,27,01,57,22.60
2009,07,27,01,58,22.60
2009,07,27,01,59,22.60
2009,07,27,02,00,22.50
2009,07,27,02,01,22.50
2009,07,27,02,02,22.50
2009,07,27,02,03,22.50
2009,07,27,02,04,22.40
2009,07,27,02,05,22.40
2009,07,27,02,06,22.40
2009,07,27,02,07,22.30
2009,07,27,02,08,22.30
2009,07,27,02,09,22.20
2009,07,27,02,10,22.20
2009,07,27,02,11,22.20
2009,07,27,02,12,22.20
2009,07,27,02,13,22.10
2009,07,27,02,14,22.10
2009,07,27,02,15,22.10
2009,07,27,02,16,22.10
2009,07,27,02,17,22.00
2009,07,27,02,18,22.00
2009,07,27,02,19,22.00
2009,07,27,02,20,21.90
2009,07,27,02,21,21.90
2009,07,27,02,22,21.80
2009,07,27,02,23,21.80
2009,07,27,02,24,21.70
2009,07,27,02,25,21.70
2009,07,27,02,26,21.60
2009,07,27,02,27,21.60
2009,07,27,02,28,21.60
2009,07,27,02,29,21.60
2009,07,27,02,30,21.50
2009,07,27,02,31,21.40
2009,07,27,02,32,21.40
2009,07,27,02,33,21.30
2009,07,27,02,34,21.30
2009,07,27,02,35,21.30
2009,07,27,02,36,21.30
2009,07,27,02,37,21.20
2009,07,27,02,38,21.10
2009,07,27,02,39,21.10
2009,07,27,02,40,21.00
2009,07,27,02,41,21.00
2009,07,27,02,42,21.00
2009,07,27,02,43,21.00
2009,07,27,02,44,21.00
2009,07,27,02,45,21.00
2009,07,27,02,46,21.00
2009,07,27,02,47,21.00
2009,07,27,02,48,20.90
2009,07,27,02,49,20.80
2009,07,27,02,50,20.80
2009,07,27,02,51,20.70
2009,07,27,02,52,20.60
2009,07,27,02,53,20.50
2009,07,27,02,54,20.40
2009,07,27,02,55,20.40
2009,07,27,02,56,20.30
2009,07,27,02,57,20.20
2009,07,27,02,58,20.20
2009,07,27,02,59,20.20
2009,07,27,03,00,20.20
2009,07,27,03,01,20.20
2009,07,27,03,02,20.20
2009,07,27,03,03,20.20
2009,07,27,03,04,20.30
2009,07,27,03,05,20.30
2009,07,27,03,06,20.40
2009,07,27,03,07,20.40
2009,07,27,03,08,20.40
2009,07,27,03,09,20.30
2009,07,27,03,10,20.30
2009,07,27,03,11,20.30
2009,07,27,03,12,20.20
2009,07,27,03,13,20.20
2009,07,27,03,14,20.20
2009,07,27,03,15,20.20
2009,07,27,03,16,20.20
2009,07,27,03,17,20.10
2009,07,27,03,18,20.10
2009,07,27,03,19,20.10
2009,07,27,03,20,20.10
2009,07,27,03,21,19.90
2009,07,27,03,22,19.90
2009,07,27,03,23,19.90
2009,07,27,03,24,19.90
2009,07,27,03,25,19.90
2009,07,27,03,26,20.00
2009,07,27,03,27,20.10
2009,07,27,03,28,20.10
2009,07,27,03,29,20.10
2009,07,27,03,30,20.10
2009,07,27,03,31,20.00
2009,07,27,03,32,19.90
2009,07,27,03,33,19.90
2009,07,27,03,34,19.80
2009,07,27,03,35,19.70
2009,07,27,03,36,19.70
2009,07,27,03,37,19.70
2009,07,27,03,38,19.60
2009,07,27,03,39,19.60
2009,07,27,03,40,19.50
2009,07,27,03,41,19.50
2009,07,27,03,42,19.50
2009,07,27,03,43,19.50
2009,07,27,03,44,19.50
2009,07,27,03,45,19.50
2009,07,27,03,46,19.50
2009,07,27,03,47,19.50
2009,07,27,03,48,19.50
2009,07,27,03,49,19.50
2009,07,27,03,50,19.40
2009,07,27,03,51,19.40
2009,07,27,03,52,19.40
2009,07,27,03,53,19.30
2009,07,27,03,54,19.40
2009,07,27,03,55,19.40
2009,07,27,03,56,19.40
2009,07,27,03,57,19.40
2009,07,27,03,58,19.40
2009,07,27,03,59,19.50
2009,07,27,04,00,19.50
2009,07,27,04,01,19.50
2009,07,27,04,02,19.50
2009,07,27,04,03,19.50
2009,07,27,04,05,19.40
2009,07,27,04,06,19.40
2009,07,27,04,07,19.40
2009,07,27,04,08,19.30
2009,07,27,04,09,19.30
2009,07,27,04,10,19.30
2009,07,27,04,11,19.30
2009,07,27,04,12,19.20
2009,07,27,04,13,19.20
2009,07,27,04,14,19.10
2009,07,27,04,15,19.10
2009,07,27,04,16,19.10
2009,07,27,04,17,19.10
2009,07,27,04,18,19.00
2009,07,27,04,19,18.90
2009,07,27,04,20,18.90
2009,07,27,04,21,18.90
2009,07,27,04,22,18.90
2009,07,27,04,23,18.80
2009,07,27,04,24,18.80
2009,07,27,04,25,18.80
2009,07,27,04,26,18.70
2009,07,27,04,27,18.70
2009,07,27,04,28,18.70
2009,07,27,04,29,18.60
2009,07,27,04,30,18.60
2009,07,27,04,31,18.60
2009,07,27,04,32,18.60
2009,07,27,04,33,18.60
2009,07,27,04,34,18.60
2009,07,27,04,35,18.60
2009,07,27,04,36,18.60
2009,07,27,04,37,18.60
2009,07,27,04,38,18.60
2009,07,27,04,39,18.60
2009,07,27,04,40,18.60
2009,07,27,04,41,18.60
2009,07,27,04,42,18.60
2009,07,27,04,43,18.70
2009,07,27,04,44,18.70
2009,07,27,04,45,18.70
2009,07,27,04,46,18.70
2009,07,27,04,47,18.70
2009,07,27,04,48,18.70
2009,07,27,04,49,18.70
2009,07,27,04,50,18.70
2009,07,27,04,51,18.70
2009,07,27,04,52,18.70
2009,07,27,04,53,18.70
2009,07,27,04,54,18.70
2009,07,27,04,55,18.70
2009,07,27,04,56,18.70
2009,07,27,04,57,18.70
2009,07,27,04,58,18.70
2009,07,27,04,59,18.60
2009,07,27,05,00,18.60
2009,07,27,05,01,18.60
2009,07,27,05,02,18.60
2009,07,27,05,03,18.60
2009,07,27,05,04,18.60
2009,07,27,05,05,18.50
2009,07,27,05,06,18.50
2009,07,27,05,07,18.50
2009,07,27,05,08,18.50
2009,07,27,05,09,18.50
2009,07,27,05,10,18.40
2009,07,27,05,11,18.40
2009,07,27,05,12,18.40
2009,07,27,05,13,18.40
2009,07,27,05,14,18.40
2009,07,27,05,15,18.30
2009,07,27,05,16,18.30
2009,07,27,05,17,18.30
2009,07,27,05,18,18.30
2009,07,27,05,19,18.30
2009,07,27,05,20,18.20
2009,07,27,05,21,18.20
2009,07,27,05,22,18.20
2009,07,27,05,23,18.20
2009,07,27,05,24,18.20
2009,07,27,05,25,18.20
2009,07,27,05,26,18.20
2009,07,27,05,27,18.20
2009,07,27,05,28,18.20
2009,07,27,05,29,18.20
2009,07,27,05,30,18.10
2009,07,27,05,31,18.10
2009,07,27,05,32,18.20
2009,07,27,05,33,18.20
2009,07,27,05,34,18.20
2009,07,27,05,35,18.20
2009,07,27,05,36,18.20
2009,07,27,05,37,18.20
2009,07,27,05,38,18.20
2009,07,27,05,39,18.20
2009,07,27,05,40,18.20
2009,07,27,05,41,18.20
2009,07,27,05,42,18.20
2009,07,27,05,43,18.20
2009,07,27,05,44,18.20
2009,07,27,05,45,18.20
2009,07,27,05,46,18.20
2009,07,27,05,47,18.20
2009,07,27,05,48,18.20
2009,07,27,05,49,18.20
2009,07,27,05,50,18.20
2009,07,27,05,51,18.20
2009,07,27,05,52,18.20
2009,07,27,05,53,18.20
2009,07,27,05,54,18.20
2009,07,27,05,55,18.20
2009,07,27,05,56,18.20
2009,07,27,05,57,18.20
2009,07,27,05,58,18.10
2009,07,27,05,59,18.10
2009,07,27,06,00,18.10
2009,07,27,06,01,18.10
2009,07,27,06,02,18.10
2009,07,27,06,03,18.10
2009,07,27,06,04,18.10
2009,07,27,06,05,18.10
2009,07,27,06,06,18.10
2009,07,27,06,07,18.10
2009,07,27,06,08,18.10
2009,07,27,06,09,18.10
2009,07,27,06,10,18.10
2009,07,27,06,11,18.10
2009,07,27,06,12,18.10
2009,07,27,06,13,18.10
2009,07,27,06,14,18.20
2009,07,27,06,15,18.20
2009,07,27,06,16,18.20
2009,07,27,06,17,18.20
2009,07,27,06,18,18.30
2009,07,27,06,19,18.40
2009,07,27,06,20,18.50
2009,07,27,06,21,18.50
2009,07,27,06,22,18.60
2009,07,27,06,23,18.70
2009,07,27,06,24,18.70
2009,07,27,06,25,18.80
2009,07,27,06,26,18.90
2009,07,27,06,27,18.90
2009,07,27,06,28,19.00
2009,07,27,06,29,19.10
2009,07,27,06,30,19.10
2009,07,27,06,31,19.10
2009,07,27,06,32,19.20
2009,07,27,06,33,19.20
2009,07,27,06,34,19.30
2009,07,27,06,35,19.30
2009,07,27,06,36,19.30
2009,07,27,06,37,19.40
2009,07,27,06,38,19.40
2009,07,27,06,39,19.40
2009,07,27,06,40,19.40
2009,07,27,06,41,19.40
2009,07,27,06,42,19.40
2009,07,27,06,43,19.40
2009,07,27,06,44,19.50
2009,07,27,06,45,19.50
2009,07,27,06,46,19.60
2009,07,27,06,47,19.60
2009,07,27,06,48,19.70
2009,07,27,06,49,19.80
2009,07,27,06,50,19.90
2009,07,27,06,51,20.00
2009,07,27,06,52,20.20
2009,07,27,06,53,20.20
2009,07,27,06,54,20.30
2009,07,27,06,55,20.40
2009,07,27,06,56,20.40
2009,07,27,06,57,20.50
2009,07,27,06,58,20.60
2009,07,27,06,59,20.60
2009,07,27,07,00,20.60
2009,07,27,07,01,20.70
2009,07,27,07,02,20.70
2009,07,27,07,03,20.80
2009,07,27,07,04,20.80
2009,07,27,07,05,20.80
2009,07,27,07,06,20.90
2009,07,27,07,07,20.90
2009,07,27,07,08,20.90
2009,07,27,07,09,20.90
2009,07,27,07,10,20.90
2009,07,27,07,11,20.90
2009,07,27,07,12,20.90
2009,07,27,07,13,20.90
2009,07,27,07,14,20.90
2009,07,27,07,15,20.90
2009,07,27,07,16,20.90
2009,07,27,07,17,20.90
2009,07,27,07,18,20.90
2009,07,27,07,19,20.90
2009,07,27,07,20,20.90
2009,07,27,07,21,20.90
2009,07,27,07,22,20.80
2009,07,27,07,23,20.80
2009,07,27,07,24,20.80
2009,07,27,07,25,20.80
2009,07,27,07,26,20.80
2009,07,27,07,27,20.80
2009,07,27,07,28,20.80
2009,07,27,07,29,20.80
2009,07,27,07,30,20.80
2009,07,27,07,31,20.90
2009,07,27,07,32,20.90
2009,07,27,07,33,20.90
2009,07,27,07,34,20.90
2009,07,27,07,35,20.90
2009,07,27,07,36,20.90
2009,07,27,07,37,20.90
2009,07,27,07,38,21.00
2009,07,27,07,39,21.00
2009,07,27,07,40,21.00
2009,07,27,07,41,21.00
2009,07,27,07,42,21.00
2009,07,27,07,43,21.00
2009,07,27,07,44,21.00
2009,07,27,07,45,21.10
2009,07,27,07,46,21.10
2009,07,27,07,47,21.20
2009,07,27,07,48,21.20
2009,07,27,07,49,21.20
2009,07,27,07,50,21.20
2009,07,27,07,51,21.30
2009,07,27,07,52,21.30
2009,07,27,07,53,21.30
2009,07,27,07,54,21.30
2009,07,27,07,55,21.30
2009,07,27,07,56,21.30
2009,07,27,07,57,21.30
2009,07,27,07,58,21.30
2009,07,27,07,59,21.40
2009,07,27,08,00,21.40
2009,07,27,08,01,21.40
2009,07,27,08,02,21.50
2009,07,27,08,03,21.60
2009,07,27,08,04,21.60
2009,07,27,08,05,21.60
2009,07,27,08,06,21.60
2009,07,27,08,07,21.70
2009,07,27,08,08,21.70
2009,07,27,08,09,21.70
2009,07,27,08,10,21.80
2009,07,27,08,11,21.80
2009,07,27,08,12,21.80
2009,07,27,08,13,21.90
2009,07,27,08,14,21.90
2009,07,27,08,15,22.00
2009,07,27,08,16,22.00
2009,07,27,08,17,22.10
2009,07,27,08,18,22.20
2009,07,27,08,19,22.20
2009,07,27,08,20,22.30
2009,07,27,08,21,22.30
2009,07,27,08,22,22.40
2009,07,27,08,23,22.40
2009,07,27,08,24,22.40
2009,07,27,08,25,22.50
2009,07,27,08,26,22.50
2009,07,27,08,27,22.50
2009,07,27,08,28,22.50
2009,07,27,08,29,22.50
2009,07,27,08,30,22.50
2009,07,27,08,31,22.50
2009,07,27,08,32,22.60
2009,07,27,08,33,22.60
2009,07,27,08,34,22.70
2009,07,27,08,35,22.70
2009,07,27,08,36,22.70
2009,07,27,08,37,22.70
2009,07,27,08,38,22.70
2009,07,27,08,39,22.60
2009,07,27,08,40,22.70
2009,07,27,08,41,22.70
2009,07,27,08,42,22.70
2009,07,27,08,43,22.80
2009,07,27,08,44,22.80
2009,07,27,08,45,22.80
2009,07,27,08,46,22.90
2009,07,27,08,47,22.90
2009,07,27,08,48,22.90
2009,07,27,08,49,22.90
2009,07,27,08,50,22.90
2009,07,27,08,51,22.90
2009,07,27,08,52,22.90
2009,07,27,08,53,22.90
2009,07,27,08,54,22.90
2009,07,27,08,55,22.90
2009,07,27,08,56,22.90
2009,07,27,08,57,22.90
2009,07,27,08,58,22.90
2009,07,27,08,59,22.90
2009,07,27,09,00,22.90
2009,07,27,09,01,22.90
2009,07,27,09,02,23.10
2009,07,27,09,03,23.10
2009,07,27,09,04,23.20
2009,07,27,09,05,23.20
2009,07,27,09,06,23.30
2009,07,27,09,07,23.30
2009,07,27,09,08,23.30
2009,07,27,09,09,23.20
2009,07,27,09,10,23.30
2009,07,27,09,11,23.30
2009,07,27,09,12,23.30
2009,07,27,09,13,23.30
2009,07,27,09,14,23.30
2009,07,27,09,15,23.30
2009,07,27,09,16,23.30
2009,07,27,09,17,23.30
2009,07,27,09,18,23.30
2009,07,27,09,19,23.20
2009,07,27,09,20,23.20
2009,07,27,09,21,23.20
2009,07,27,09,22,23.20
2009,07,27,09,23,23.20
2009,07,27,09,24,23.30
2009,07,27,09,25,23.30
2009,07,27,09,26,23.30
2009,07,27,09,27,23.40
2009,07,27,09,28,23.40
2009,07,27,09,29,23.40
2009,07,27,09,30,23.30
2009,07,27,09,31,23.30
2009,07,27,09,32,23.30
2009,07,27,09,33,23.30
2009,07,27,09,34,23.30
2009,07,27,09,35,23.30
2009,07,27,09,36,23.30
2009,07,27,09,37,23.30
2009,07,27,09,38,23.30
2009,07,27,09,39,23.30
2009,07,27,09,40,23.30
2009,07,27,09,41,23.30
2009,07,27,09,42,23.30
2009,07,27,09,43,23.30
2009,07,27,09,44,23.40
2009,07,27,09,45,23.50
2009,07,27,09,46,23.60
2009,07,27,09,47,23.40
2009,07,27,09,48,23.50
2009,07,27,09,49,23.60
2009,07,27,09,50,23.60
2009,07,27,09,51,23.70
2009,07,27,09,52,23.70
2009,07,27,09,53,23.70
2009,07,27,09,54,23.70
2009,07,27,09,55,23.70
2009,07,27,09,56,23.70
2009,07,27,09,57,23.70
2009,07,27,09,58,23.70
2009,07,27,09,59,23.80
2009,07,27,10,00,23.80
2009,07,27,10,01,23.80
2009,07,27,10,02,23.80
2009,07,27,10,03,23.70
2009,07,27,10,04,23.70
2009,07,27,10,05,23.70
2009,07,27,10,06,23.70
2009,07,27,10,07,23.60
2009,07,27,10,08,23.70
2009,07,27,10,09,23.70
2009,07,27,10,10,23.70
2009,07,27,10,11,23.70
2009,07,27,10,12,23.70
2009,07,27,10,13,23.70
2009,07,27,10,14,23.70
2009,07,27,10,15,23.80
2009,07,27,10,16,23.90
2009,07,27,10,17,24.00
2009,07,27,10,18,24.10
2009,07,27,10,19,24.10
2009,07,27,10,20,24.10
2009,07,27,10,21,24.10
2009,07,27,10,22,24.10
2009,07,27,10,23,24.10
2009,07,27,10,24,24.10
2009,07,27,10,25,24.20
2009,07,27,10,26,24.30
2009,07,27,10,27,24.30
2009,07,27,10,28,24.30
2009,07,27,10,29,24.40
2009,07,27,10,30,24.40
2009,07,27,10,31,24.40
2009,07,27,10,32,24.40
2009,07,27,10,33,24.40
2009,07,27,10,34,24.40
2009,07,27,10,35,24.30
2009,07,27,10,36,24.40
2009,07,27,10,37,24.40
2009,07,27,10,38,24.40
2009,07,27,10,39,24.40
2009,07,27,10,40,24.40
2009,07,27,10,41,24.50
2009,07,27,10,42,24.50
2009,07,27,10,43,24.60
2009,07,27,10,44,24.60
2009,07,27,10,45,24.60
2009,07,27,10,46,24.60
2009,07,27,10,47,24.60
2009,07,27,10,48,24.60
2009,07,27,10,49,24.60
2009,07,27,10,50,24.50
2009,07,27,10,51,24.50
2009,07,27,10,52,24.50
2009,07,27,10,53,24.50
2009,07,27,10,54,24.60
2009,07,27,10,55,24.60
2009,07,27,10,56,24.70
2009,07,27,10,57,24.70
2009,07,27,10,58,24.80
2009,07,27,10,59,24.80
2009,07,27,11,00,24.80
2009,07,27,11,01,24.80
2009,07,27,11,02,24.80
2009,07,27,11,03,24.80
2009,07,27,11,04,24.80
2009,07,27,11,05,24.80
2009,07,27,11,06,24.90
2009,07,27,11,07,24.80
2009,07,27,11,08,24.80
2009,07,27,11,09,24.80
2009,07,27,11,10,24.90
2009,07,27,11,11,24.90
2009,07,27,11,12,24.90
2009,07,27,11,13,24.90
2009,07,27,11,14,25.00
2009,07,27,11,15,25.00
2009,07,27,11,16,25.10
2009,07,27,11,17,25.10
2009,07,27,11,18,25.10
2009,07,27,11,19,25.10
2009,07,27,11,20,25.10
2009,07,27,11,21,25.20
2009,07,27,11,22,25.20
2009,07,27,11,23,25.20
2009,07,27,11,24,25.30
2009,07,27,11,25,25.30
2009,07,27,11,26,25.30
2009,07,27,11,27,25.40
2009,07,27,11,28,25.40
2009,07,27,11,29,25.50
2009,07,27,11,30,25.60
2009,07,27,11,31,25.70
2009,07,27,11,32,25.70
2009,07,27,11,33,25.70
2009,07,27,11,34,25.70
2009,07,27,11,35,25.80
2009,07,27,11,36,25.90
2009,07,27,11,37,25.90
2009,07,27,11,38,26.00
2009,07,27,11,39,26.10
2009,07,27,11,40,26.20
2009,07,27,11,41,26.30
2009,07,27,11,42,26.40
2009,07,27,11,43,26.60
2009,07,27,11,44,26.60
2009,07,27,11,45,26.70
2009,07,27,11,46,26.70
2009,07,27,11,47,26.70
2009,07,27,11,48,26.80
2009,07,27,11,49,26.80
2009,07,27,11,50,26.70
2009,07,27,11,51,26.70
2009,07,27,11,52,26.80
2009,07,27,11,53,26.80
2009,07,27,11,54,26.80
2009,07,27,11,55,26.90
2009,07,27,11,56,26.90
2009,07,27,11,57,27.00
2009,07,27,11,58,27.10
2009,07,27,11,59,27.10
2009,07,27,12,00,27.20
2009,07,27,12,01,27.20
2009,07,27,12,02,27.30
2009,07,27,12,03,27.30
2009,07,27,12,04,27.30
2009,07,27,12,05,27.30
2009,07,27,12,06,27.30
2009,07,27,12,07,27.30
2009,07,27,12,08,27.30
2009,07,27,12,09,27.30
2009,07,27,12,10,27.30
2009,07,27,12,11,27.40
2009,07,27,12,12,27.50
2009,07,27,12,13,27.60
2009,07,27,12,14,27.60
2009,07,27,12,15,27.70
2009,07,27,12,16,27.70
2009,07,27,12,17,27.70
2009,07,27,12,18,27.70
2009,07,27,12,19,27.70
2009,07,27,12,20,27.70
2009,07,27,12,21,27.70
2009,07,27,12,22,27.70
2009,07,27,12,23,27.70
2009,07,27,12,24,27.70
2009,07,27,12,25,27.70
2009,07,27,12,26,27.80
2009,07,27,12,27,27.80
2009,07,27,12,28,27.90
2009,07,27,12,29,28.00
2009,07,27,12,30,28.00
2009,07,27,12,31,28.00
2009,07,27,12,32,27.90
2009,07,27,12,33,27.90
2009,07,27,12,34,27.70
2009,07,27,12,35,27.70
2009,07,27,12,36,27.70
2009,07,27,12,37,27.70
2009,07,27,12,38,27.60
2009,07,27,12,39,27.60
2009,07,27,12,40,27.50
2009,07,27,12,41,27.40
2009,07,27,12,42,27.40
2009,07,27,12,43,27.50
2009,07,27,12,44,27.50
2009,07,27,12,45,27.40
2009,07,27,12,46,27.60
2009,07,27,12,47,27.60
2009,07,27,12,48,27.80
2009,07,27,12,49,27.80
2009,07,27,12,50,28.00
2009,07,27,12,51,28.10
2009,07,27,12,52,28.10
2009,07,27,12,53,28.20
2009,07,27,12,54,28.30
2009,07,27,12,55,28.40
2009,07,27,12,56,28.50
2009,07,27,12,57,28.60
2009,07,27,12,58,28.50
2009,07,27,12,59,28.50
2009,07,27,13,00,28.60
2009,07,27,13,01,28.60
2009,07,27,13,02,28.60
2009,07,27,13,03,28.60
2009,07,27,13,04,28.60
2009,07,27,13,05,28.60
2009,07,27,13,06,28.80
2009,07,27,13,07,28.70
2009,07,27,13,08,28.60
2009,07,27,13,09,28.50
2009,07,27,13,10,28.40
2009,07,27,13,11,28.40
2009,07,27,13,12,28.40
2009,07,27,13,13,28.40
2009,07,27,13,14,28.30
2009,07,27,13,15,28.20
2009,07,27,13,16,28.10
2009,07,27,13,17,28.00
2009,07,27,13,18,27.90
2009,07,27,13,19,27.90
2009,07,27,13,20,27.90
2009,07,27,13,21,28.00
2009,07,27,13,22,28.20
2009,07,27,13,23,28.40
2009,07,27,13,24,28.60
2009,07,27,13,25,28.60
2009,07,27,13,26,28.70
2009,07,27,13,27,28.80
2009,07,27,13,28,28.80
2009,07,27,13,29,28.70
2009,07,27,13,30,28.70
2009,07,27,13,31,28.80
2009,07,27,13,32,28.80
2009,07,27,13,33,28.80
2009,07,27,13,34,28.70
2009,07,27,13,35,28.60
2009,07,27,13,36,28.60
2009,07,27,13,37,28.50
2009,07,27,13,38,28.40
2009,07,27,13,39,28.50
2009,07,27,13,40,28.60
2009,07,27,13,41,28.60
2009,07,27,13,42,28.70
2009,07,27,13,43,28.70
2009,07,27,13,44,28.80
2009,07,27,13,45,28.90
2009,07,27,13,46,28.90
2009,07,27,13,47,28.90
2009,07,27,13,48,28.80
2009,07,27,13,49,28.80
2009,07,27,13,50,28.80
2009,07,27,13,51,28.80
2009,07,27,13,52,28.90
2009,07,27,13,53,28.90
2009,07,27,13,54,28.90
2009,07,27,13,55,28.90
2009,07,27,13,56,29.00
2009,07,27,13,57,29.20
2009,07,27,13,58,29.20
2009,07,27,13,59,29.20
2009,07,27,14,00,29.10
2009,07,27,14,01,29.10
2009,07,27,14,02,29.10
2009,07,27,14,03,29.20
2009,07,27,14,04,29.30
2009,07,27,14,05,29.30
2009,07,27,14,06,29.30
2009,07,27,14,07,29.30
2009,07,27,14,08,29.40
2009,07,27,14,09,29.50
2009,07,27,14,10,29.70
2009,07,27,14,11,29.70
2009,07,27,14,12,29.70
2009,07,27,14,13,29.70
2009,07,27,14,14,29.60
2009,07,27,14,15,29.70
2009,07,27,14,16,29.90
2009,07,27,14,17,30.00
2009,07,27,14,18,30.20
2009,07,27,14,19,30.40
2009,07,27,14,20,30.40
2009,07,27,14,21,30.40
2009,07,27,14,22,30.40
2009,07,27,14,23,30.40
2009,07,27,14,24,30.30
2009,07,27,14,25,30.30
2009,07,27,14,26,30.30
2009,07,27,14,27,30.30
2009,07,27,14,28,30.30
2009,07,27,14,29,30.30
2009,07,27,14,30,30.30
2009,07,27,14,31,30.30
2009,07,27,14,32,30.30
2009,07,27,14,33,30.30
2009,07,27,14,34,30.20
2009,07,27,14,35,30.20
2009,07,27,14,36,30.20
2009,07,27,14,37,30.20
2009,07,27,14,38,30.20
2009,07,27,14,39,30.10
2009,07,27,14,40,30.10
2009,07,27,14,41,30.20
2009,07,27,14,42,30.20
2009,07,27,14,43,30.20
2009,07,27,14,44,30.20
2009,07,27,14,45,30.10
2009,07,27,14,46,30.10
2009,07,27,14,47,30.10
2009,07,27,14,48,30.10
2009,07,27,14,49,30.20
2009,07,27,14,50,30.20
2009,07,27,14,51,30.30
2009,07,27,14,52,30.30
2009,07,27,14,53,30.30
2009,07,27,14,54,30.40
2009,07,27,14,55,30.40
2009,07,27,14,56,30.40
2009,07,27,14,57,30.40
2009,07,27,14,58,30.40
2009,07,27,14,59,30.40
2009,07,27,15,00,30.60
2009,07,27,15,01,30.70
2009,07,27,15,02,30.90
2009,07,27,15,03,31.00
2009,07,27,15,04,31.10
2009,07,27,15,05,31.20
2009,07,27,15,06,31.20
2009,07,27,15,07,31.30
2009,07,27,15,08,31.30
2009,07,27,15,09,31.30
2009,07,27,15,10,31.40
2009,07,27,15,11,31.40
2009,07,27,15,12,31.30
2009,07,27,15,13,31.30
2009,07,27,15,14,31.40
2009,07,27,15,15,31.40
2009,07,27,15,16,31.50
2009,07,27,15,17,31.40
2009,07,27,15,18,31.40
2009,07,27,15,19,31.40
2009,07,27,15,20,31.40
2009,07,27,15,21,31.40
2009,07,27,15,22,31.60
2009,07,27,15,23,31.70
2009,07,27,15,24,31.70
2009,07,27,15,25,31.80
2009,07,27,15,26,31.80
2009,07,27,15,27,31.80
2009,07,27,15,28,31.80
2009,07,27,15,29,31.70
2009,07,27,15,30,31.60
2009,07,27,15,31,31.60
2009,07,27,15,32,31.50
2009,07,27,15,33,31.40
2009,07,27,15,34,31.40
2009,07,27,15,35,31.30
2009,07,27,15,36,31.30
2009,07,27,15,37,31.20
2009,07,27,15,38,31.10
2009,07,27,15,39,31.20
2009,07,27,15,40,31.20
2009,07,27,15,41,31.30
2009,07,27,15,42,31.30
2009,07,27,15,43,31.20
2009,07,27,15,44,31.20
2009,07,27,15,45,31.20
2009,07,27,15,46,31.20
2009,07,27,15,47,31.30
2009,07,27,15,48,31.40
2009,07,27,15,49,31.40
2009,07,27,15,50,31.50
2009,07,27,15,51,31.60
2009,07,27,15,52,31.70
2009,07,27,15,53,31.70
2009,07,27,15,54,31.80
2009,07,27,15,55,31.90
2009,07,27,15,56,32.10
2009,07,27,15,57,32.10
2009,07,27,15,58,32.10
2009,07,27,15,59,32.10
2009,07,27,16,00,32.00
2009,07,27,16,01,32.10
2009,07,27,16,02,32.10
2009,07,27,16,03,32.10
2009,07,27,16,04,31.90
2009,07,27,16,05,31.80
2009,07,27,16,06,31.70
2009,07,27,16,07,31.70
2009,07,27,16,08,31.70
2009,07,27,16,09,31.70
2009,07,27,16,10,31.60
2009,07,27,16,11,31.60
2009,07,27,16,12,31.50
2009,07,27,16,13,31.50
2009,07,27,16,14,31.60
2009,07,27,16,15,31.60
2009,07,27,16,16,31.80
2009,07,27,16,17,31.80
2009,07,27,16,18,31.70
2009,07,27,16,19,31.60
2009,07,27,16,20,31.60
2009,07,27,16,21,31.50
2009,07,27,16,22,31.40
2009,07,27,16,23,31.40
2009,07,27,16,24,31.60
2009,07,27,16,25,31.60
2009,07,27,16,26,31.60
2009,07,27,16,27,31.60
2009,07,27,16,28,31.60
2009,07,27,16,29,31.50
2009,07,27,16,30,31.50
2009,07,27,16,31,31.60
2009,07,27,16,32,31.60
2009,07,27,16,33,31.70
2009,07,27,16,34,31.80
2009,07,27,16,35,31.80
2009,07,27,16,36,31.90
2009,07,27,16,37,32.10
2009,07,27,16,38,32.20
2009,07,27,16,39,32.30
2009,07,27,16,40,32.30
2009,07,27,16,41,32.40
2009,07,27,16,42,32.40
2009,07,27,16,43,32.50
2009,07,27,16,44,32.60
2009,07,27,16,45,32.50
2009,07,27,16,46,32.40
2009,07,27,16,47,32.40
2009,07,27,16,48,32.30
2009,07,27,16,49,32.20
2009,07,27,16,50,32.20
2009,07,27,16,51,32.20
2009,07,27,16,52,32.20
2009,07,27,16,53,32.30
2009,07,27,16,54,32.30
2009,07,27,16,55,32.40
2009,07,27,16,56,32.50
2009,07,27,16,57,32.60
2009,07,27,16,58,32.70
2009,07,27,16,59,32.80
2009,07,27,17,00,32.90
2009,07,27,17,01,32.90
2009,07,27,17,02,32.90
2009,07,27,17,03,32.90
2009,07,27,17,04,32.80
2009,07,27,17,05,32.80
2009,07,27,17,06,32.80
2009,07,27,17,07,32.80
2009,07,27,17,08,32.80
2009,07,27,17,09,32.90
2009,07,27,17,10,32.90
2009,07,27,17,11,33.00
2009,07,27,17,12,33.00
2009,07,27,17,13,33.10
2009,07,27,17,14,33.00
2009,07,27,17,15,33.00
2009,07,27,17,16,33.10
2009,07,27,17,17,33.10
2009,07,27,17,18,33.20
2009,07,27,17,19,33.20
2009,07,27,17,20,33.20